Stations météo

réclame
Mon MeteoGroup
Gilze-Rijen, Pays-Bas (6350): Température de l'air & dewpoint: 12.08.2018 02:00:00 - 18.08.2018 02:00:00 (CEST)Gilze-Rijen, Pays-Bas (6350): Température de l'air 5cm: 12.08.2018 02:00:00 - 18.08.2018 02:00:00 (CEST)Gilze-Rijen, Pays-Bas (6350): Vitesse du vent & gusts: 12.08.2018 02:00:00 - 18.08.2018 02:00:00 (CEST)Gilze-Rijen, Pays-Bas (6350): Direction du vent: 12.08.2018 02:00:00 - 18.08.2018 02:00:00 (CEST)Gilze-Rijen, Pays-Bas (6350): reduced air pressure: 12.08.2018 02:00:00 - 18.08.2018 02:00:00 (CEST)Gilze-Rijen, Pays-Bas (6350): visibility: 12.08.2018 02:00:00 - 18.08.2018 02:00:00 (CEST)Gilze-Rijen, Pays-Bas (6350): Quantités de précipitations: 12.08.2018 02:00:00 - 18.08.2018 02:00:00 (CEST)
Date & Time tt [°C] td [°C] tt 5cm [°C] ff [km/h] ff [knt] fx [km/h] fx [knt] dd ppp [hPa] vv [km] rr [mm]
18.08.2018 02:00:00 11,5 10,3 6,9 5 3 11 6 SSW 1021,5 10 0,0
18.08.2018 01:00:00 11,3 10,7 6,4 4 2 7 4 SSW 1021,5 10 0,0
18.08.2018 00:00:00 11,6 10,8 7,0 4 2 7 4 SSW 1021,5 10 0,0
17.08.2018 23:00:00 12,6 10,6 7,9 4 2 11 6 WSW 1021,3 10 0,0
17.08.2018 22:00:00 14,5 10,9 10,1 4 2 11 6 W 1021,1 10 0,0
17.08.2018 21:00:00 16,7 10,7 15,6 9 5 18 10 WNW 1020,7 10 0,0
17.08.2018 20:00:00 20,6 9,4 20,2 15 8 22 12 W 1020,1 10 0,0
17.08.2018 19:00:00 21,8 10,0 22,8 15 8 32 18 NW 1019,6 10 0,0
17.08.2018 18:00:00 22,4 9,8 24,0 21 11 36 19 WNW 1019,5 10 0,0
17.08.2018 17:00:00 22,8 9,7 25,3 21 11 32 18 WNW 1019,4 10 0,0
17.08.2018 16:00:00 22,0 9,9 23,2 18 10 29 16 WNW 1019,5 10 0,0
17.08.2018 15:00:00 22,3 11,6 24,0 13 7 25 14 WNW 1019,4 10 0,0
17.08.2018 14:00:00 22,6 11,0 24,0 13 7 22 12 W 1019,2 10 0,0
17.08.2018 13:00:00 23,0 11,6 25,1 8 4 22 12 - 1019,1 10 0,0
17.08.2018 12:00:00 20,6 12,3 22,2 5 3 14 8 - 1019,0 10 0,0
17.08.2018 11:00:00 19,2 14,0 19,8 9 5 14 8 NW 1018,9 10 0,0
17.08.2018 10:00:00 18,2 16,0 19,1 9 5 14 8 W 1018,3 10 0,0
17.08.2018 09:00:00 16,2 15,9 16,0 5 3 7 4 W 1017,6 10 0,0
17.08.2018 08:00:00 15,1 14,9 14,8 8 4 7 4 W 1017,3 9 0,0
17.08.2018 07:00:00 15,1 15,0 14,8 4 2 11 6 SW 1017,0 7 0,0
17.08.2018 06:00:00 15,4 15,3 15,0 4 2 7 4 SSW 1016,4 9 0,0
17.08.2018 05:00:00 15,5 15,2 15,4 8 4 11 6 W 1015,8 10 0,0
17.08.2018 04:00:00 15,7 15,5 15,6 5 3 11 6 WSW 1016,8 10 0,0
17.08.2018 03:00:00 15,9 15,7 15,8 8 4 11 6 - 1016,2 10 0,0
17.08.2018 02:00:00 16,2 15,9 16,0 11 6 22 12 NW 1015,7 4,6 7,0
17.08.2018 01:00:00 17,4 16,6 17,2 15 8 25 14 NW 1016,1 5 0,3
17.08.2018 00:00:00 17,0 16,0 16,3 4 2 11 6 - 1015,4 10 0,0
16.08.2018 23:00:00 17,1 15,9 14,6 5 3 11 6 N 1014,8 10 0,0
16.08.2018 22:00:00 18,0 16,0 17,0 5 3 18 10 NE 1015,0 10 0,0
16.08.2018 21:00:00 19,7 16,4 19,3 11 6 22 12 NW 1014,9 10 0,0
16.08.2018 20:00:00 21,8 15,7 21,8 16 9 29 16 NW 1014,5 10 0,0
16.08.2018 19:00:00 24,4 15,0 24,7 9 5 29 16 W 1014,1 10 0,0
16.08.2018 18:00:00 25,7 13,5 26,3 16 9 29 16 W 1014,3 10 0,0
16.08.2018 17:00:00 25,2 13,9 27,0 15 8 25 14 W 1014,5 10 0,0
16.08.2018 16:00:00 26,3 14,0 29,1 15 8 25 14 SSW 1014,7 10 0,0
16.08.2018 15:00:00 24,3 13,9 27,1 18 10 32 18 SW 1015,1 10 0,0
16.08.2018 14:00:00 22,8 14,2 24,4 15 8 29 16 SW 1015,5 10 0,0
16.08.2018 13:00:00 21,3 14,0 22,3 16 9 32 18 SW 1015,7 10 0,0
16.08.2018 12:00:00 21,1 13,9 21,8 16 9 32 18 SW 1015,8 10 0,0
16.08.2018 11:00:00 21,8 14,8 22,5 16 9 - - SW 1015,8 10 -
16.08.2018 10:00:00 20,3 14,6 21,6 15 8 32 18 SSW 1016,0 10 0,0
16.08.2018 09:00:00 19,5 15,1 20,3 13 7 25 14 SSW 1016,1 10 0,0
16.08.2018 08:00:00 17,4 14,6 17,0 13 7 18 10 S 1016,4 10 0,0
16.08.2018 07:00:00 15,2 13,9 14,2 11 6 14 8 S 1016,7 10 0,0
16.08.2018 06:00:00 14,5 13,4 13,7 9 5 14 8 S 1016,7 10 0,0
16.08.2018 05:00:00 15,2 13,7 14,3 11 6 18 10 S 1016,8 10 0,0
16.08.2018 04:00:00 15,2 13,8 14,6 13 7 18 10 S 1017,0 10 0,0
16.08.2018 03:00:00 15,4 13,8 14,7 11 6 18 10 S 1017,4 10 0,0
16.08.2018 02:00:00 16,7 14,1 15,9 13 7 18 10 SSW 1017,8 10 0,0
16.08.2018 01:00:00 16,3 14,1 15,4 11 6 14 8 SSW 1017,9 10 0,0
16.08.2018 00:00:00 16,3 14,1 15,2 11 6 14 8 S 1018,1 10 0,0
15.08.2018 23:00:00 17,3 14,4 16,3 9 5 14 8 S 1018,2 10 0,0
15.08.2018 22:00:00 17,9 14,2 17,1 9 5 11 6 S 1018,4 10 0,0
15.08.2018 21:00:00 19,7 13,8 19,0 11 6 18 10 SSW 1018,2 10 0,0
15.08.2018 20:00:00 21,2 15,0 21,4 13 7 22 12 SSW 1018,3 10 0,0
15.08.2018 19:00:00 21,6 15,3 22,2 13 7 25 14 SSW 1018,6 10 0,0
15.08.2018 18:00:00 21,7 15,4 22,6 11 6 18 10 WSW 1018,9 10 0,0
15.08.2018 17:00:00 22,0 14,7 23,3 11 6 32 18 WSW 1019,0 10 0,0
15.08.2018 16:00:00 22,8 14,0 24,4 18 10 32 18 WSW 1019,2 10 0,0
15.08.2018 15:00:00 23,0 14,5 24,4 16 9 29 16 WSW 1019,1 10 0,0
15.08.2018 14:00:00 20,4 15,1 20,6 13 7 32 18 WSW 1019,3 10 0,0
15.08.2018 13:00:00 22,1 16,3 23,6 16 9 25 14 S 1019,0 9 0,0
15.08.2018 12:00:00 20,4 16,4 20,9 11 6 22 12 SW 1019,3 7 0,0
15.08.2018 11:00:00 20,3 16,3 21,0 13 7 25 14 WSW 1019,3 10 0,0
15.08.2018 10:00:00 19,7 16,6 20,2 9 5 18 10 SW 1019,0 8 0,0
15.08.2018 09:00:00 18,8 16,3 19,0 9 5 14 8 SW 1018,5 10 0,0
15.08.2018 08:00:00 17,8 15,5 17,6 9 5 14 8 SSW 1018,2 10 0,0
15.08.2018 07:00:00 17,0 15,0 16,7 13 7 18 10 SSW 1018,0 10 0,0
15.08.2018 06:00:00 16,7 14,6 16,5 9 5 14 8 SSW 1017,6 10 0,0
15.08.2018 05:00:00 16,8 14,5 16,6 9 5 14 8 SW 1017,7 10 0,0
15.08.2018 04:00:00 17,0 14,3 16,8 9 5 14 8 SSW 1017,9 10 0,0
15.08.2018 03:00:00 17,2 14,2 16,8 9 5 14 8 SSW 1018,1 10 0,0
15.08.2018 02:00:00 16,6 13,9 15,7 8 4 14 8 SW 1018,3 10 0,0
15.08.2018 01:00:00 17,5 14,4 16,9 8 4 11 6 SSW 1018,4 10 0,0
15.08.2018 00:00:00 17,9 14,2 17,0 5 3 7 4 SSW 1018,2 10 0,0
14.08.2018 23:00:00 18,6 14,0 18,2 4 2 11 6 - 1018,0 10 0,0
14.08.2018 22:00:00 19,0 13,3 18,7 8 4 18 10 WSW 1018,0 10 0,0
14.08.2018 21:00:00 19,4 12,7 19,1 9 5 25 14 W 1017,6 10 0,0
14.08.2018 20:00:00 19,8 12,8 19,7 16 9 32 18 W 1017,3 10 0,0
14.08.2018 19:00:00 21,7 12,2 22,7 21 11 36 19 W 1016,8 10 0,0
14.08.2018 18:00:00 22,5 13,6 23,8 28 15 36 19 W 1016,6 10 0,0
14.08.2018 17:00:00 21,5 15,7 22,0 18 10 32 18 WNW 1016,4 10 0,1
14.08.2018 16:00:00 19,2 16,8 19,4 24 13 36 19 WNW 1016,5 7 0,1
14.08.2018 15:00:00 22,3 15,0 22,2 21 11 36 19 WNW 1015,8 10 0,0
14.08.2018 14:00:00 23,6 13,1 27,0 18 10 50 27 W 1014,9 10 0,0
14.08.2018 13:00:00 23,6 13,3 24,9 26 14 40 21 WNW 1014,7 10 0,0
14.08.2018 12:00:00 23,2 12,9 24,5 21 11 36 19 WNW 1014,6 10 0,0
14.08.2018 11:00:00 21,3 13,6 21,7 22 12 36 19 NW 1014,2 10 0,0
14.08.2018 10:00:00 20,0 13,9 20,6 18 10 32 18 WNW 1013,7 10 0,0
14.08.2018 09:00:00 18,6 14,7 18,7 15 8 29 16 WNW 1013,0 10 0,0
14.08.2018 08:00:00 18,0 15,9 17,5 9 5 18 10 W 1012,3 10 0,0
14.08.2018 07:00:00 17,3 15,7 16,9 13 7 22 12 W 1011,4 10 0,0
14.08.2018 06:00:00 17,3 16,8 16,8 9 5 22 12 WSW 1010,7 4,0 0,4
14.08.2018 05:00:00 17,6 17,1 17,5 13 7 22 12 WSW 1010,4 3,4 0,5
14.08.2018 04:00:00 17,6 16,8 17,4 9 5 22 12 SW 1010,0 5 0,0
14.08.2018 03:00:00 17,5 16,7 17,1 11 6 18 10 WSW 1009,7 5 0,0
14.08.2018 02:00:00 17,5 16,4 17,1 11 6 25 14 SW 1009,6 9 0,0
14.08.2018 01:00:00 17,4 16,3 16,4 11 6 14 8 SW 1009,2 10 0,0
14.08.2018 00:00:00 16,3 15,1 15,7 5 3 11 6 SSW 1008,8 10 0,0
13.08.2018 23:00:00 16,2 14,5 15,2 5 3 11 6 SSW 1008,5 10 0,0
13.08.2018 22:00:00 18,0 14,9 17,3 9 5 14 8 WSW 1008,1 10 0,0
13.08.2018 21:00:00 19,2 14,5 18,6 9 5 22 12 W 1007,8 10 0,0
13.08.2018 20:00:00 20,0 14,2 19,5 16 9 29 16 W 1007,3 10 0,0
13.08.2018 19:00:00 21,1 14,9 21,4 21 11 32 18 W 1006,7 10 0,0
13.08.2018 18:00:00 21,6 15,5 22,1 15 8 29 16 W 1006,5 10 0,0
13.08.2018 17:00:00 20,0 17,2 20,2 9 5 18 10 WSW 1006,2 10 0,0
13.08.2018 16:00:00 19,7 17,1 20,3 15 8 29 16 WSW 1006,2 10 0,8
13.08.2018 15:00:00 19,2 17,7 18,6 9 5 32 18 W 1006,3 10 2,0
13.08.2018 14:00:00 19,8 17,5 19,4 9 5 25 14 SSW 1005,7 10 0,9
13.08.2018 13:00:00 21,6 16,3 22,9 13 7 22 12 WSW 1005,8 10 0,0
13.08.2018 12:00:00 20,3 16,4 21,1 15 8 25 14 SW 1006,0 10 0,0
13.08.2018 11:00:00 20,0 17,0 20,4 13 7 25 14 SSW 1006,0 10 0,2
13.08.2018 10:00:00 19,5 16,5 20,1 15 8 29 16 SW 1005,8 10 0,0
13.08.2018 09:00:00 18,4 16,9 18,3 11 6 18 10 SSW 1006,2 10 0,0
13.08.2018 08:00:00 18,0 16,4 17,5 11 6 14 8 S 1005,7 10 0,0
13.08.2018 07:00:00 17,6 16,3 17,2 13 7 18 10 S 1005,6 10 0,1
13.08.2018 06:00:00 17,4 16,2 17,0 9 5 11 6 S 1005,9 10 0,0
13.08.2018 05:00:00 17,1 16,1 16,5 2 1 11 6 SE 1005,7 10 0,3
13.08.2018 04:00:00 18,7 14,8 18,0 11 6 18 10 W 1006,0 10 0,2
13.08.2018 03:00:00 20,0 12,2 18,1 5 3 18 10 SSW 1006,9 10 0,0
13.08.2018 02:00:00 20,0 13,4 18,2 4 2 7 4 SSE 1007,2 10 0,0
13.08.2018 01:00:00 20,7 11,8 18,1 4 2 7 4 SE 1007,8 10 0,0
13.08.2018 00:00:00 21,0 11,7 18,8 4 2 7 4 SSE 1008,1 10 0,0
12.08.2018 23:00:00 21,7 11,5 19,0 5 3 7 4 SSE 1008,6 10 0,0
12.08.2018 22:00:00 21,9 12,4 19,5 4 2 4 2 SE 1009,1 10 0,0
12.08.2018 21:00:00 23,9 11,0 22,2 4 2 7 4 S 1009,4 10 0,0
12.08.2018 20:00:00 25,3 10,8 24,5 2 1 11 6 ESE 1009,6 10 0,0
12.08.2018 19:00:00 26,9 8,6 27,0 11 6 25 14 SSW 1010,0 10 0,0
12.08.2018 18:00:00 27,8 7,5 28,7 18 10 32 18 S 1010,6 10 0,0
12.08.2018 17:00:00 28,2 7,1 30,0 16 9 32 18 S 1011,2 10 0,0
12.08.2018 16:00:00 28,3 7,7 31,0 13 7 29 16 S 1012,0 10 0,0
12.08.2018 15:00:00 27,4 7,4 30,0 18 10 32 18 S 1013,1 10 0,0
12.08.2018 14:00:00 26,8 8,8 29,6 15 8 32 18 SSW 1013,8 10 0,0
12.08.2018 13:00:00 25,5 10,1 27,6 18 10 36 19 SW 1014,6 10 0,0
12.08.2018 12:00:00 25,2 11,1 26,1 21 11 32 18 S 1015,2 10 0,0
12.08.2018 11:00:00 22,8 10,8 24,2 18 10 29 16 S 1015,6 10 0,0
12.08.2018 10:00:00 19,8 10,9 20,1 15 8 22 12 S 1016,1 10 0,0
12.08.2018 09:00:00 17,9 10,3 18,5 11 6 18 10 S 1016,4 10 0,0
12.08.2018 08:00:00 16,4 9,5 16,2 8 4 14 8 SSE 1016,7 10 0,0
12.08.2018 07:00:00 15,3 9,6 14,9 5 3 14 8 SSE 1017,0 10 0,0
12.08.2018 06:00:00 14,8 9,3 14,3 11 6 14 8 S 1017,3 10 0,0
12.08.2018 05:00:00 14,7 9,7 14,3 9 5 14 8 SSE 1017,9 10 0,0
12.08.2018 04:00:00 14,4 10,1 13,9 9 5 14 8 SSE 1018,7 10 0,0
12.08.2018 03:00:00 14,0 9,9 13,0 9 5 18 10 SSE 1019,3 10 0,0
12.08.2018 02:00:00 13,3 9,9 11,3 11 6 14 8 SSE 1019,9 10 0,0

tt = Température de l'air
td = dewpoint
tt 5cm = Température de l'air 5cm
ff = Vitesse du vent
fx = gusts
dd = Direction du vent
ppp = reduced air pressure
vv = visibility
rr = Quantités de précipitations

stations d'obs. à proximité